Year,Month,Day,Hour,Minute,Value (Times are PST for temperature in C)
2014,01,28,00,00,4.00
2014,01,28,00,01,4.00
2014,01,28,00,02,4.00
2014,01,28,00,03,4.00
2014,01,28,00,04,4.00
2014,01,28,00,05,4.00
2014,01,28,00,06,4.00
2014,01,28,00,07,4.00
2014,01,28,00,08,4.00
2014,01,28,00,09,4.00
2014,01,28,00,10,4.00
2014,01,28,00,11,4.00
2014,01,28,00,12,3.90
2014,01,28,00,13,3.90
2014,01,28,00,14,3.90
2014,01,28,00,15,3.90
2014,01,28,00,16,3.90
2014,01,28,00,17,3.90
2014,01,28,00,18,3.90
2014,01,28,00,19,3.90
2014,01,28,00,20,3.90
2014,01,28,00,21,3.90
2014,01,28,00,22,3.90
2014,01,28,00,23,3.90
2014,01,28,00,24,3.90
2014,01,28,00,25,3.90
2014,01,28,00,26,3.90
2014,01,28,00,27,3.90
2014,01,28,00,28,3.90
2014,01,28,00,29,4.00
2014,01,28,00,30,4.00
2014,01,28,00,31,4.00
2014,01,28,00,32,3.90
2014,01,28,00,33,3.90
2014,01,28,00,34,3.90
2014,01,28,00,35,3.90
2014,01,28,00,36,3.90
2014,01,28,00,37,3.90
2014,01,28,00,38,3.90
2014,01,28,00,39,3.90
2014,01,28,00,40,3.90
2014,01,28,00,41,3.90
2014,01,28,00,42,3.90
2014,01,28,00,43,3.90
2014,01,28,00,44,3.90
2014,01,28,00,45,3.90
2014,01,28,00,46,3.90
2014,01,28,00,47,3.90
2014,01,28,00,48,3.90
2014,01,28,00,49,3.90
2014,01,28,00,50,3.90
2014,01,28,00,51,3.90
2014,01,28,00,52,3.90
2014,01,28,00,53,3.90
2014,01,28,00,54,3.90
2014,01,28,00,55,3.90
2014,01,28,00,56,3.90
2014,01,28,00,57,3.90
2014,01,28,00,58,3.90
2014,01,28,00,59,3.90
2014,01,28,01,00,3.90
2014,01,28,01,01,3.90
2014,01,28,01,02,3.90
2014,01,28,01,03,3.90
2014,01,28,01,04,3.90
2014,01,28,01,05,3.90
2014,01,28,01,06,3.90
2014,01,28,01,07,3.90
2014,01,28,01,08,3.90
2014,01,28,01,09,3.90
2014,01,28,01,10,3.90
2014,01,28,01,11,3.90
2014,01,28,01,12,3.90
2014,01,28,01,13,3.90
2014,01,28,01,14,3.90
2014,01,28,01,15,3.90
2014,01,28,01,16,3.90
2014,01,28,01,17,3.90
2014,01,28,01,18,3.90
2014,01,28,01,19,3.90
2014,01,28,01,20,3.90
2014,01,28,01,21,3.90
2014,01,28,01,22,3.90
2014,01,28,01,23,3.90
2014,01,28,01,24,3.90
2014,01,28,01,25,3.90
2014,01,28,01,26,3.90
2014,01,28,01,27,3.90
2014,01,28,01,28,3.90
2014,01,28,01,29,3.90
2014,01,28,01,30,3.90
2014,01,28,01,31,3.90
2014,01,28,01,32,3.90
2014,01,28,01,33,3.90
2014,01,28,01,34,4.00
2014,01,28,01,35,4.00
2014,01,28,01,36,4.00
2014,01,28,01,37,4.00
2014,01,28,01,38,4.00
2014,01,28,01,39,4.00
2014,01,28,01,40,4.00
2014,01,28,01,41,4.00
2014,01,28,01,42,4.00
2014,01,28,01,43,4.00
2014,01,28,01,44,4.00
2014,01,28,01,45,4.00
2014,01,28,01,46,4.00
2014,01,28,01,47,4.00
2014,01,28,01,48,4.00
2014,01,28,01,49,4.00
2014,01,28,01,50,4.00
2014,01,28,01,51,4.10
2014,01,28,01,52,4.10
2014,01,28,01,53,4.10
2014,01,28,01,54,4.10
2014,01,28,01,55,4.10
2014,01,28,01,56,4.10
2014,01,28,01,57,4.10
2014,01,28,01,58,4.10
2014,01,28,01,59,4.10
2014,01,28,02,00,4.10
2014,01,28,02,01,4.10
2014,01,28,02,02,4.10
2014,01,28,02,03,4.20
2014,01,28,02,04,4.20
2014,01,28,02,05,4.20
2014,01,28,02,06,4.20
2014,01,28,02,07,4.20
2014,01,28,02,08,4.20
2014,01,28,02,09,4.20
2014,01,28,02,10,4.20
2014,01,28,02,11,4.20
2014,01,28,02,12,4.20
2014,01,28,02,13,4.20
2014,01,28,02,14,4.20
2014,01,28,02,15,4.20
2014,01,28,02,16,4.20
2014,01,28,02,17,4.20
2014,01,28,02,18,4.20
2014,01,28,02,19,4.20
2014,01,28,02,20,4.30
2014,01,28,02,21,4.30
2014,01,28,02,22,4.30
2014,01,28,02,23,4.30
2014,01,28,02,24,4.30
2014,01,28,02,25,4.30
2014,01,28,02,26,4.30
2014,01,28,02,27,4.30
2014,01,28,02,28,4.30
2014,01,28,02,29,4.30
2014,01,28,02,30,4.30
2014,01,28,02,31,4.30
2014,01,28,02,32,4.30
2014,01,28,02,33,4.30
2014,01,28,02,34,4.30
2014,01,28,02,35,4.30
2014,01,28,02,36,4.40
2014,01,28,02,37,4.40
2014,01,28,02,38,4.40
2014,01,28,02,39,4.40
2014,01,28,02,40,4.40
2014,01,28,02,41,4.40
2014,01,28,02,42,4.40
2014,01,28,02,43,4.40
2014,01,28,02,44,4.40
2014,01,28,02,45,4.40
2014,01,28,02,46,4.40
2014,01,28,02,47,4.40
2014,01,28,02,48,4.40
2014,01,28,02,49,4.40
2014,01,28,02,50,4.40
2014,01,28,02,51,4.50
2014,01,28,02,52,4.50
2014,01,28,02,53,4.50
2014,01,28,02,54,4.50
2014,01,28,02,55,4.50
2014,01,28,02,56,4.50
2014,01,28,02,57,4.50
2014,01,28,02,58,4.50
2014,01,28,02,59,4.50
2014,01,28,03,00,4.50
2014,01,28,03,01,4.50
2014,01,28,03,02,4.50
2014,01,28,03,03,4.60
2014,01,28,10,04,4.60
2014,01,28,10,05,4.60
2014,01,28,10,06,4.60
2014,01,28,10,07,4.60
2014,01,28,10,08,4.60
2014,01,28,10,09,4.60
2014,01,28,10,10,4.60
2014,01,28,10,11,4.60
2014,01,28,10,12,4.70
2014,01,28,10,13,4.70
2014,01,28,10,14,4.70
2014,01,28,10,15,4.70
2014,01,28,10,16,4.70
2014,01,28,10,17,4.70
2014,01,28,10,18,4.70
2014,01,28,10,19,4.80
2014,01,28,10,20,4.80
2014,01,28,10,21,4.80
2014,01,28,10,22,4.80
2014,01,28,10,23,4.80
2014,01,28,10,24,4.80
2014,01,28,10,25,4.80
2014,01,28,10,26,4.80
2014,01,28,10,27,4.80
2014,01,28,10,28,4.90
2014,01,28,10,29,4.90
2014,01,28,10,30,4.90
2014,01,28,10,31,4.90
2014,01,28,10,32,4.90
2014,01,28,10,33,4.90
2014,01,28,10,34,4.90
2014,01,28,10,35,4.90
2014,01,28,10,36,4.90
2014,01,28,10,37,5.00
2014,01,28,10,38,5.00
2014,01,28,10,39,5.00
2014,01,28,10,40,5.00
2014,01,28,10,41,5.00
2014,01,28,10,42,5.00
2014,01,28,10,43,5.00
2014,01,28,10,44,5.10
2014,01,28,10,45,5.10
2014,01,28,10,46,5.10
2014,01,28,10,47,5.10
2014,01,28,10,48,5.10
2014,01,28,10,49,5.10
2014,01,28,10,50,5.10
2014,01,28,10,51,5.10
2014,01,28,10,52,5.10
2014,01,28,10,53,5.10
2014,01,28,10,54,5.10
2014,01,28,10,55,5.10
2014,01,28,10,56,5.20
2014,01,28,10,57,5.20
2014,01,28,10,58,5.20
2014,01,28,10,59,5.20
2014,01,28,11,00,5.20
2014,01,28,11,01,5.20
2014,01,28,11,02,5.20
2014,01,28,11,03,5.20
2014,01,28,11,04,5.20
2014,01,28,11,05,5.20
2014,01,28,11,06,5.20
2014,01,28,11,07,5.20
2014,01,28,11,08,5.20
2014,01,28,11,09,5.20
2014,01,28,11,10,5.20
2014,01,28,11,11,5.20
2014,01,28,11,12,5.20
2014,01,28,11,13,5.20
2014,01,28,11,14,5.20
2014,01,28,11,15,5.20
2014,01,28,11,16,5.20
2014,01,28,11,17,5.20
2014,01,28,11,18,5.20
2014,01,28,11,19,5.20
2014,01,28,11,20,5.20
2014,01,28,11,21,5.20
2014,01,28,11,22,5.30
2014,01,28,11,23,5.30
2014,01,28,11,24,5.30
2014,01,28,11,25,5.30
2014,01,28,11,26,5.30
2014,01,28,11,27,5.30
2014,01,28,11,28,5.30
2014,01,28,11,29,5.30
2014,01,28,11,30,5.30
2014,01,28,11,31,5.30
2014,01,28,11,32,5.30
2014,01,28,11,33,5.30
2014,01,28,11,34,5.40
2014,01,28,11,35,5.40
2014,01,28,11,36,5.40
2014,01,28,11,37,5.40
2014,01,28,11,38,5.40
2014,01,28,11,39,5.40
2014,01,28,11,40,5.40
2014,01,28,11,41,5.40
2014,01,28,11,42,5.40
2014,01,28,11,43,5.40
2014,01,28,11,44,5.40
2014,01,28,11,45,5.40
2014,01,28,11,46,5.50
2014,01,28,11,47,5.50
2014,01,28,11,48,5.50
2014,01,28,11,49,5.50
2014,01,28,11,50,5.50
2014,01,28,11,51,5.50
2014,01,28,11,52,5.50
2014,01,28,11,53,5.50
2014,01,28,11,54,5.50
2014,01,28,11,55,5.50
2014,01,28,11,56,5.50
2014,01,28,11,57,5.50
2014,01,28,11,58,5.50
2014,01,28,11,59,5.50
2014,01,28,12,00,5.50
2014,01,28,12,01,5.50
2014,01,28,12,02,5.50
2014,01,28,12,03,5.50
2014,01,28,12,04,5.50
2014,01,28,12,05,5.60
2014,01,28,12,06,5.60
2014,01,28,12,07,5.60
2014,01,28,12,08,5.60
2014,01,28,12,09,5.60
2014,01,28,12,10,5.70
2014,01,28,12,11,5.70
2014,01,28,12,12,5.70
2014,01,28,12,13,5.70
2014,01,28,12,14,5.70
2014,01,28,12,15,5.70
2014,01,28,12,16,5.70
2014,01,28,12,17,5.70
2014,01,28,12,18,5.70
2014,01,28,12,19,5.70
2014,01,28,12,20,5.70
2014,01,28,12,21,5.70
2014,01,28,12,22,5.70
2014,01,28,12,23,5.70
2014,01,28,12,24,5.70
2014,01,28,12,25,5.70
2014,01,28,12,26,5.70
2014,01,28,12,27,5.70
2014,01,28,12,28,5.70
2014,01,28,12,29,5.70
2014,01,28,12,30,5.70
2014,01,28,12,31,5.70
2014,01,28,12,32,5.70
2014,01,28,12,33,5.70
2014,01,28,12,34,5.70
2014,01,28,12,35,5.70
2014,01,28,12,36,5.70
2014,01,28,12,37,5.70
2014,01,28,12,38,5.70
2014,01,28,12,39,5.70
2014,01,28,12,40,5.70
2014,01,28,12,41,5.70
2014,01,28,12,42,5.70
2014,01,28,12,43,5.70
2014,01,28,12,44,5.70
2014,01,28,12,45,5.70
2014,01,28,12,46,5.70
2014,01,28,12,47,5.80
2014,01,28,12,48,5.80
2014,01,28,12,49,5.80
2014,01,28,12,50,5.80
2014,01,28,12,51,5.80
2014,01,28,12,52,5.80
2014,01,28,12,53,5.80
2014,01,28,12,54,5.80
2014,01,28,12,55,5.80
2014,01,28,12,56,5.80
2014,01,28,12,57,5.80
2014,01,28,12,58,5.80
2014,01,28,12,59,5.80
2014,01,28,13,00,5.80
2014,01,28,13,01,5.80
2014,01,28,13,02,5.80
2014,01,28,13,03,5.80
2014,01,28,13,04,5.80
2014,01,28,13,05,5.80
2014,01,28,13,06,5.80
2014,01,28,13,07,5.80
2014,01,28,13,08,5.80
2014,01,28,13,09,5.80
2014,01,28,13,10,5.90
2014,01,28,13,11,5.90
2014,01,28,13,12,5.90
2014,01,28,13,13,5.80
2014,01,28,13,14,5.80
2014,01,28,13,15,5.90
2014,01,28,13,16,5.80
2014,01,28,13,17,5.80
2014,01,28,13,18,5.80
2014,01,28,13,19,5.80
2014,01,28,13,20,5.80
2014,01,28,13,21,5.80
2014,01,28,13,22,5.80
2014,01,28,13,23,5.80
2014,01,28,13,24,5.80
2014,01,28,13,25,5.80
2014,01,28,13,26,5.90
2014,01,28,13,27,5.90
2014,01,28,13,28,5.90
2014,01,28,13,29,5.90
2014,01,28,13,30,5.90
2014,01,28,13,31,5.90
2014,01,28,13,32,5.90
2014,01,28,13,33,5.90
2014,01,28,13,34,5.90
2014,01,28,13,35,5.90
2014,01,28,13,36,5.90
2014,01,28,13,37,5.90
2014,01,28,13,38,5.90
2014,01,28,13,39,6.00
2014,01,28,13,40,6.00
2014,01,28,13,41,6.00
2014,01,28,13,42,6.00
2014,01,28,13,43,6.00
2014,01,28,13,44,6.00
2014,01,28,13,45,6.00
2014,01,28,13,46,6.00
2014,01,28,13,47,6.00
2014,01,28,13,48,6.00
2014,01,28,13,49,6.00
2014,01,28,13,50,6.00
2014,01,28,13,51,6.00
2014,01,28,13,52,6.10
2014,01,28,13,53,6.10
2014,01,28,13,54,6.10
2014,01,28,13,55,6.00
2014,01,28,13,56,6.10
2014,01,28,13,57,6.00
2014,01,28,13,58,6.00
2014,01,28,13,59,6.00
2014,01,28,14,00,6.00
2014,01,28,14,01,6.00
2014,01,28,14,02,6.00
2014,01,28,14,03,6.00
2014,01,28,14,04,6.00
2014,01,28,14,05,6.00
2014,01,28,14,06,6.00
2014,01,28,14,07,6.00
2014,01,28,14,08,6.00
2014,01,28,14,09,6.00
2014,01,28,14,10,6.00
2014,01,28,14,11,6.00
2014,01,28,14,12,6.00
2014,01,28,14,13,6.00
2014,01,28,14,14,6.00
2014,01,28,14,15,6.00
2014,01,28,14,16,5.90
2014,01,28,14,17,5.90
2014,01,28,14,18,6.00
2014,01,28,14,19,6.00
2014,01,28,14,20,6.00
2014,01,28,14,21,6.00
2014,01,28,14,22,6.00
2014,01,28,14,23,6.00
2014,01,28,14,24,6.00
2014,01,28,14,25,6.00
2014,01,28,14,26,6.00
2014,01,28,14,27,6.00
2014,01,28,14,28,6.10
2014,01,28,14,29,6.00
2014,01,28,14,30,6.00
2014,01,28,14,31,6.00
2014,01,28,14,32,6.00
2014,01,28,14,33,6.00
2014,01,28,14,34,6.00
2014,01,28,14,35,6.00
2014,01,28,14,36,6.00
2014,01,28,14,37,6.00
2014,01,28,14,38,6.00
2014,01,28,14,39,6.00
2014,01,28,14,40,6.00
2014,01,28,14,41,6.00
2014,01,28,14,42,6.00
2014,01,28,14,43,6.10
2014,01,28,14,44,6.10
2014,01,28,14,45,6.10
2014,01,28,14,46,6.10
2014,01,28,14,47,6.10
2014,01,28,14,48,6.10
2014,01,28,14,49,6.10
2014,01,28,14,50,6.10
2014,01,28,14,51,6.10
2014,01,28,14,52,6.10
2014,01,28,14,53,6.10
2014,01,28,14,54,6.10
2014,01,28,14,55,6.10
2014,01,28,14,56,6.10
2014,01,28,14,57,6.10
2014,01,28,14,58,6.10
2014,01,28,14,59,6.10
2014,01,28,15,00,6.10
2014,01,28,15,01,6.10
2014,01,28,15,02,6.10
2014,01,28,15,03,6.10
2014,01,28,15,04,6.10
2014,01,28,15,05,6.10
2014,01,28,15,06,6.10
2014,01,28,15,07,6.10
2014,01,28,15,08,6.10
2014,01,28,15,09,6.10
2014,01,28,15,10,6.10
2014,01,28,15,11,6.10
2014,01,28,15,12,6.10
2014,01,28,15,13,6.10
2014,01,28,15,14,6.10
2014,01,28,15,15,6.10
2014,01,28,15,16,6.10
2014,01,28,15,17,6.10
2014,01,28,15,18,6.10
2014,01,28,15,19,6.10
2014,01,28,15,20,6.20
2014,01,28,15,21,6.20
2014,01,28,15,22,6.20
2014,01,28,15,23,6.20
2014,01,28,15,24,6.20
2014,01,28,15,25,6.20
2014,01,28,15,26,6.10
2014,01,28,15,27,6.10
2014,01,28,15,28,6.10
2014,01,28,15,29,6.10
2014,01,28,15,30,6.10
2014,01,28,15,31,6.10
2014,01,28,15,32,6.10
2014,01,28,15,33,6.10
2014,01,28,15,34,6.10
2014,01,28,15,35,6.10
2014,01,28,15,36,6.10
2014,01,28,15,37,6.10
2014,01,28,15,38,6.10
2014,01,28,15,39,6.10
2014,01,28,15,40,6.10
2014,01,28,15,41,6.10
2014,01,28,15,42,6.10
2014,01,28,15,43,6.10
2014,01,28,15,44,6.10
2014,01,28,15,45,6.10
2014,01,28,15,46,6.10
2014,01,28,15,47,6.10
2014,01,28,15,48,6.10
2014,01,28,15,49,6.10
2014,01,28,15,50,6.10
2014,01,28,15,51,6.10
2014,01,28,15,52,6.10
2014,01,28,15,53,6.10
2014,01,28,15,54,6.10
2014,01,28,15,55,6.10
2014,01,28,15,56,6.10
2014,01,28,15,57,6.10
2014,01,28,15,58,6.10
2014,01,28,15,59,6.10
2014,01,28,16,00,6.10
2014,01,28,16,01,6.10
2014,01,28,16,02,6.10
2014,01,28,16,03,6.10
2014,01,28,16,04,6.10
2014,01,28,16,05,6.10
2014,01,28,16,06,6.10
2014,01,28,16,07,6.10
2014,01,28,16,08,6.10
2014,01,28,16,09,6.10
2014,01,28,16,10,6.10
2014,01,28,16,11,6.10
2014,01,28,16,12,6.10
2014,01,28,16,13,6.10
2014,01,28,16,14,6.10
2014,01,28,16,15,6.10
2014,01,28,16,16,6.10
2014,01,28,16,17,6.10
2014,01,28,16,18,6.10
2014,01,28,16,19,6.10
2014,01,28,16,20,6.10
2014,01,28,16,21,6.10
2014,01,28,16,22,6.10
2014,01,28,16,23,6.10
2014,01,28,16,24,6.10
2014,01,28,16,25,6.00
2014,01,28,16,26,6.00
2014,01,28,16,27,6.00
2014,01,28,16,28,6.00
2014,01,28,16,29,6.00
2014,01,28,16,30,6.00
2014,01,28,16,31,6.00
2014,01,28,16,32,6.00
2014,01,28,16,33,6.00
2014,01,28,16,34,6.00
2014,01,28,16,35,6.00
2014,01,28,16,36,6.00
2014,01,28,16,37,6.00
2014,01,28,16,38,6.00
2014,01,28,16,39,6.00
2014,01,28,16,40,6.00
2014,01,28,16,41,6.00
2014,01,28,16,42,5.90
2014,01,28,16,43,5.90
2014,01,28,16,44,5.90
2014,01,28,16,45,5.90
2014,01,28,16,46,5.90
2014,01,28,16,47,5.90
2014,01,28,16,48,5.90
2014,01,28,16,49,5.90
2014,01,28,16,50,5.90
2014,01,28,16,51,5.90
2014,01,28,16,52,5.90
2014,01,28,16,53,5.90
2014,01,28,16,54,5.90
2014,01,28,16,55,5.90
2014,01,28,16,56,5.90
2014,01,28,16,57,5.90
2014,01,28,16,58,5.90
2014,01,28,16,59,5.90
2014,01,28,17,00,5.90
2014,01,28,17,01,5.90
2014,01,28,17,02,5.90
2014,01,28,17,03,5.90
2014,01,28,17,04,5.90
2014,01,28,17,05,5.90
2014,01,28,17,06,5.90
2014,01,28,17,07,5.90
2014,01,28,17,08,5.90
2014,01,28,17,09,5.90
2014,01,28,17,10,5.90
2014,01,28,17,11,5.90
2014,01,28,17,12,5.90
2014,01,28,17,13,5.90
2014,01,28,17,14,5.90
2014,01,28,17,15,5.90
2014,01,28,17,16,5.90
2014,01,28,17,17,5.80
2014,01,28,17,18,5.80
2014,01,28,17,19,5.80
2014,01,28,17,20,5.80
2014,01,28,17,21,5.80
2014,01,28,17,22,5.80
2014,01,28,17,23,5.80
2014,01,28,17,24,5.80
2014,01,28,17,25,5.80
2014,01,28,17,26,5.80
2014,01,28,17,27,5.80
2014,01,28,17,28,5.80
2014,01,28,17,29,5.80
2014,01,28,17,30,5.80
2014,01,28,17,31,5.80
2014,01,28,17,32,5.80
2014,01,28,17,33,5.80
2014,01,28,17,34,5.80
2014,01,28,17,35,5.80
2014,01,28,17,36,5.80
2014,01,28,17,37,5.80
2014,01,28,17,38,5.80
2014,01,28,17,39,5.80
2014,01,28,17,40,5.80
2014,01,28,17,41,5.80
2014,01,28,17,42,5.80
2014,01,28,17,43,5.80
2014,01,28,17,44,5.80
2014,01,28,17,45,5.80
2014,01,28,17,46,5.80
2014,01,28,17,47,5.80
2014,01,28,17,48,5.80
2014,01,28,17,49,5.80
2014,01,28,17,50,5.80
2014,01,28,17,51,5.80
2014,01,28,17,52,5.80
2014,01,28,17,53,5.80
2014,01,28,17,54,5.80
2014,01,28,17,55,5.80
2014,01,28,17,56,5.80
2014,01,28,17,57,5.80
2014,01,28,17,58,5.80
2014,01,28,17,59,5.80
2014,01,28,18,00,5.80
2014,01,28,18,01,5.80
2014,01,28,18,02,5.70
2014,01,28,18,03,5.80
2014,01,28,18,04,5.80
2014,01,28,18,05,5.80
2014,01,28,18,06,5.80
2014,01,28,18,07,5.70
2014,01,28,18,08,5.80
2014,01,28,18,09,5.70
2014,01,28,18,10,5.70
2014,01,28,18,11,5.70
2014,01,28,18,12,5.70
2014,01,28,18,13,5.70
2014,01,28,18,14,5.70
2014,01,28,18,15,5.70
2014,01,28,18,16,5.70
2014,01,28,18,17,5.70
2014,01,28,18,18,5.70
2014,01,28,18,19,5.70
2014,01,28,18,20,5.70
2014,01,28,18,21,5.70
2014,01,28,18,22,5.70
2014,01,28,18,23,5.70
2014,01,28,18,24,5.70
2014,01,28,18,25,5.70
2014,01,28,18,26,5.70
2014,01,28,18,27,5.70
2014,01,28,18,28,5.70
2014,01,28,18,29,5.70
2014,01,28,18,30,5.70
2014,01,28,18,31,5.70
2014,01,28,18,32,5.70
2014,01,28,18,33,5.70
2014,01,28,18,34,5.70
2014,01,28,18,35,5.70
2014,01,28,18,36,5.70
2014,01,28,18,37,5.70
2014,01,28,18,38,5.70
2014,01,28,18,39,5.70
2014,01,28,18,40,5.70
2014,01,28,18,41,5.70
2014,01,28,18,42,5.70
2014,01,28,18,43,5.70
2014,01,28,18,44,5.70
2014,01,28,18,45,5.70
2014,01,28,18,46,5.70
2014,01,28,18,47,5.70
2014,01,28,18,48,5.60
2014,01,28,18,49,5.60
2014,01,28,18,50,5.60
2014,01,28,18,51,5.60
2014,01,28,18,52,5.60
2014,01,28,18,53,5.60
2014,01,28,18,54,5.60
2014,01,28,18,55,5.60
2014,01,28,18,56,5.60
2014,01,28,18,57,5.60
2014,01,28,18,58,5.60
2014,01,28,18,59,5.60
2014,01,28,19,00,5.60
2014,01,28,19,01,5.60
2014,01,28,19,02,5.60
2014,01,28,19,03,5.60
2014,01,28,19,04,5.60
2014,01,28,19,05,5.60
2014,01,28,19,06,5.60
2014,01,28,19,07,5.60
2014,01,28,19,08,5.60
2014,01,28,19,09,5.60
2014,01,28,19,10,5.60
2014,01,28,19,11,5.60
2014,01,28,19,12,5.60
2014,01,28,19,13,5.60
2014,01,28,19,14,5.60
2014,01,28,19,15,5.60
2014,01,28,19,16,5.60
2014,01,28,19,17,5.60
2014,01,28,19,18,5.60
2014,01,28,19,19,5.60
2014,01,28,19,20,5.60
2014,01,28,19,21,5.60
2014,01,28,19,22,5.60
2014,01,28,19,23,5.60
2014,01,28,19,24,5.60
2014,01,28,19,25,5.60
2014,01,28,19,26,5.60
2014,01,28,19,27,5.60
2014,01,28,19,28,5.60
2014,01,28,19,29,5.60
2014,01,28,19,30,5.60
2014,01,28,19,31,5.60
2014,01,28,19,32,5.60
2014,01,28,19,33,5.60
2014,01,28,19,34,5.60
2014,01,28,19,35,5.60
2014,01,28,19,36,5.60
2014,01,28,19,37,5.50
2014,01,28,19,38,5.60
2014,01,28,19,39,5.60
2014,01,28,19,40,5.60
2014,01,28,19,41,5.50
2014,01,28,19,42,5.50
2014,01,28,19,43,5.50
2014,01,28,19,44,5.50
2014,01,28,19,45,5.50
2014,01,28,19,46,5.50
2014,01,28,19,47,5.50
2014,01,28,19,48,5.50
2014,01,28,19,49,5.50
2014,01,28,19,50,5.50
2014,01,28,19,51,5.50
2014,01,28,19,52,5.50
2014,01,28,19,53,5.50
2014,01,28,19,54,5.50
2014,01,28,19,55,5.50
2014,01,28,19,56,5.50
2014,01,28,19,57,5.50
2014,01,28,19,58,5.50
2014,01,28,19,59,5.50
2014,01,28,20,00,5.50
2014,01,28,20,01,5.50
2014,01,28,20,02,5.50
2014,01,28,20,03,5.50
2014,01,28,20,04,5.50
2014,01,28,20,05,5.40
2014,01,28,20,06,5.40
2014,01,28,20,07,5.40
2014,01,28,20,08,5.40
2014,01,28,20,09,5.40
2014,01,28,20,10,5.40
2014,01,28,20,11,5.40
2014,01,28,20,12,5.40
2014,01,28,20,13,5.40
2014,01,28,20,14,5.40
2014,01,28,20,15,5.40
2014,01,28,20,16,5.40
2014,01,28,20,17,5.40
2014,01,28,20,18,5.40
2014,01,28,20,19,5.40
2014,01,28,20,20,5.40
2014,01,28,20,21,5.40
2014,01,28,20,22,5.40
2014,01,28,20,23,5.40
2014,01,28,20,24,5.40
2014,01,28,20,25,5.40
2014,01,28,20,26,5.40
2014,01,28,20,27,5.40
2014,01,28,20,28,5.40
2014,01,28,20,29,5.40
2014,01,28,20,30,5.40
2014,01,28,20,31,5.40
2014,01,28,20,32,5.40
2014,01,28,20,33,5.40
2014,01,28,20,34,5.40
2014,01,28,20,35,5.40
2014,01,28,20,36,5.40
2014,01,28,20,37,5.40
2014,01,28,20,38,5.40
2014,01,28,20,39,5.40
2014,01,28,20,40,5.40
2014,01,28,20,41,5.40
2014,01,28,20,42,5.40
2014,01,28,20,43,5.40
2014,01,28,20,44,5.40
2014,01,28,20,45,5.40
2014,01,28,20,46,5.40
2014,01,28,20,47,5.40
2014,01,28,20,48,5.40
2014,01,28,20,49,5.40
2014,01,28,20,50,5.40
2014,01,28,20,51,5.40
2014,01,28,20,52,5.40
2014,01,28,20,53,5.40
2014,01,28,20,54,5.40
2014,01,28,20,55,5.40
2014,01,28,20,56,5.30
2014,01,28,20,57,5.30
2014,01,28,20,58,5.30
2014,01,28,20,59,5.30
2014,01,28,21,00,5.30
2014,01,28,21,01,5.30
2014,01,28,21,02,5.30
2014,01,28,21,03,5.30
2014,01,28,21,04,5.30
2014,01,28,21,05,5.30
2014,01,28,21,06,5.30
2014,01,28,21,07,5.30
2014,01,28,21,08,5.30
2014,01,28,21,09,5.30
2014,01,28,21,10,5.30
2014,01,28,21,11,5.30
2014,01,28,21,12,5.30
2014,01,28,21,13,5.30
2014,01,28,21,14,5.30
2014,01,28,21,15,5.30
2014,01,28,21,16,5.30
2014,01,28,21,17,5.30
2014,01,28,21,18,5.30
2014,01,28,21,19,5.30
2014,01,28,21,20,5.30
2014,01,28,21,21,5.30
2014,01,28,21,22,5.30
2014,01,28,21,23,5.30
2014,01,28,21,24,5.30
2014,01,28,21,25,5.30
2014,01,28,21,26,5.30
2014,01,28,21,27,5.30
2014,01,28,21,28,5.30
2014,01,28,21,29,5.30
2014,01,28,21,30,5.30
2014,01,28,21,31,5.30
2014,01,28,21,32,5.30
2014,01,28,21,33,5.30
2014,01,28,21,34,5.30
2014,01,28,21,35,5.30
2014,01,28,21,36,5.30
2014,01,28,21,37,5.30
2014,01,28,21,38,5.30
2014,01,28,21,39,5.30
2014,01,28,21,40,5.30
2014,01,28,21,41,5.30
2014,01,28,21,42,5.30
2014,01,28,21,43,5.30
2014,01,28,21,44,5.30
2014,01,28,21,45,5.30
2014,01,28,21,46,5.30
2014,01,28,21,47,5.30
2014,01,28,21,48,5.30
2014,01,28,21,49,5.30
2014,01,28,21,50,5.30
2014,01,28,21,51,5.30
2014,01,28,21,52,5.30
2014,01,28,21,53,5.30
2014,01,28,21,54,5.30
2014,01,28,21,55,5.30
2014,01,28,21,56,5.30
2014,01,28,21,57,5.30
2014,01,28,21,58,5.30
2014,01,28,21,59,5.30
2014,01,28,22,00,5.30
2014,01,28,22,01,5.30
2014,01,28,22,02,5.30
2014,01,28,22,03,5.30
2014,01,28,22,04,5.30
2014,01,28,22,05,5.30
2014,01,28,22,06,5.30
2014,01,28,22,07,5.30
2014,01,28,22,08,5.30
2014,01,28,22,09,5.30
2014,01,28,22,10,5.30
2014,01,28,22,11,5.30
2014,01,28,22,12,5.30
2014,01,28,22,13,5.30
2014,01,28,22,14,5.30
2014,01,28,22,15,5.30
2014,01,28,22,16,5.30
2014,01,28,22,17,5.30
2014,01,28,22,18,5.30
2014,01,28,22,19,5.30
2014,01,28,22,20,5.30
2014,01,28,22,21,5.30
2014,01,28,22,22,5.20
2014,01,28,22,23,5.20
2014,01,28,22,24,5.20
2014,01,28,22,25,5.20
2014,01,28,22,26,5.20
2014,01,28,22,27,5.20
2014,01,28,22,28,5.20
2014,01,28,22,29,5.20
2014,01,28,22,30,5.20
2014,01,28,22,31,5.20
2014,01,28,22,32,5.20
2014,01,28,22,33,5.20
2014,01,28,22,34,5.20
2014,01,28,22,35,5.20
2014,01,28,22,36,5.20
2014,01,28,22,37,5.20
2014,01,28,22,38,5.20
2014,01,28,22,39,5.20
2014,01,28,22,40,5.20
2014,01,28,22,41,5.20
2014,01,28,22,42,5.20
2014,01,28,22,43,5.20
2014,01,28,22,44,5.20
2014,01,28,22,45,5.20
2014,01,28,22,46,5.20
2014,01,28,22,47,5.20
2014,01,28,22,48,5.20
2014,01,28,22,49,5.20
2014,01,28,22,50,5.20
2014,01,28,22,51,5.20
2014,01,28,22,52,5.20
2014,01,28,22,53,5.20
2014,01,28,22,54,5.20
2014,01,28,22,55,5.20
2014,01,28,22,56,5.20
2014,01,28,22,57,5.20
2014,01,28,22,58,5.20
2014,01,28,22,59,5.20
2014,01,28,23,00,5.20
2014,01,28,23,01,5.20
2014,01,28,23,02,5.20
2014,01,28,23,03,5.20
2014,01,28,23,04,5.20
2014,01,28,23,05,5.20
2014,01,28,23,06,5.20
2014,01,28,23,07,5.20
2014,01,28,23,08,5.20
2014,01,28,23,09,5.20
2014,01,28,23,10,5.20
2014,01,28,23,11,5.20
2014,01,28,23,12,5.20
2014,01,28,23,13,5.20
2014,01,28,23,14,5.20
2014,01,28,23,15,5.20
2014,01,28,23,16,5.20
2014,01,28,23,17,5.20
2014,01,28,23,18,5.20
2014,01,28,23,19,5.20
2014,01,28,23,20,5.20
2014,01,28,23,21,5.20
2014,01,28,23,22,5.20
2014,01,28,23,23,5.20
2014,01,28,23,24,5.20
2014,01,28,23,25,5.20
2014,01,28,23,26,5.20
2014,01,28,23,27,5.20
2014,01,28,23,28,5.20
2014,01,28,23,29,5.20
2014,01,28,23,30,5.20
2014,01,28,23,31,5.20
2014,01,28,23,32,5.20
2014,01,28,23,33,5.20
2014,01,28,23,34,5.20
2014,01,28,23,35,5.20
2014,01,28,23,36,5.20
2014,01,28,23,37,5.20
2014,01,28,23,38,5.20
2014,01,28,23,39,5.20
2014,01,28,23,40,5.20
2014,01,28,23,41,5.20
2014,01,28,23,42,5.20
2014,01,28,23,43,5.20
2014,01,28,23,44,5.20
2014,01,28,23,45,5.20
2014,01,28,23,46,5.20
2014,01,28,23,47,5.20
2014,01,28,23,48,5.20
2014,01,28,23,49,5.20
2014,01,28,23,50,5.20
2014,01,28,23,51,5.20
2014,01,28,23,52,5.20
2014,01,28,23,53,5.20
2014,01,28,23,54,5.20
2014,01,28,23,55,5.20
2014,01,28,23,56,5.20
2014,01,28,23,57,5.20
2014,01,28,23,58,5.20
2014,01,28,23,59,5.20
